Weather Roundup
Issued by NWS

Home | Current Version | Previous Version | Graphics & Text | Print | Product List | Glossary Off
Versions: 1 2 3 4 5 6 7 8 9 10 11 12 13 14 15 16 17 18 19 20 21 22 23 24 25 26 27 28 29 30 31 32 33 34 35 36 37 38 39 40 41 42 43 44 45 46 47 48 49 50

385
NZUS93 KARX 170010
HRRWXR

CURRENT HOURLY OBSERVATIONS ACROSS
MUCH OF THE UPPER MISSISSIPPI VALLEY
NATIONAL WEATHER SERVICE LA CROSSE WI
600 PM CST MON JAN 16 2017


...SOUTHEAST MINNESOTA...


CITY           SKY/WX    TMP DP  RH WIND       PRES   REMARKS
ROCHESTER      MIX PCPN  31  30  96 NE10      29.97F FOG     WCI  22
ROCHESTER/MAYO CLOUDY    32  32 100 NE5       29.98F WCI  27
WINONA         MIX PCPN  32  32 100 CALM      30.02F
AUSTIN         MIX PCPN  32  30  93 NE7       29.95S WCI  26
ALBERT LEA     MIX PCPN  32  32 100 NE8       29.95S WCI  25
DODGE CENTER   MIX PCPN  30  30 100 CALM      29.96F
PRESTON        MIX PCPN  31  29  95 NE6       29.96S WCI  25
OWATONNA       LGT RAIN  30  30 100 NE7       29.97F WCI  23
FARIBAULT      MIX PCPN  30  28  93 N9        29.99F WCI  22
$$

...ELSEWHERE IN MINNESOTA...


CITY           SKY/WX    TMP DP  RH WIND       PRES   REMARKS
MINNEAPOLIS    FRZ RAIN  31  23  72 NE7       30.03F WCI  24
INTNL FALLS    CLOUDY    17  11  77 CALM      30.03R
DULUTH         CLOUDY    27  17  66 SW3       30.03F
RED WING       MIX PCPN  30  28  93 E5        30.02F WCI  25
REDWOOD FALLS  CLOUDY    31  28  89 NE3       30.02S FOG
MANKATO        MIX PCPN  31  29  92 NE8       29.99F FOG     WCI  23
WORTHINGTON    LGT SNOW  30  29  96 N13       29.97R FOG     WCI  20
FAIRMONT       MIX PCPN  31  30  96 N9        29.97S FOG     WCI  23
$$

...SOUTHWEST WISCONSIN...


CITY           SKY/WX    TMP DP  RH WIND       PRES   REMARKS
LA CROSSE      LGT RAIN  37  31  78 E6        30.00F WCI  32
PRAIRIE DU CHI MIX PCPN  33  32  96 E5        29.98R WCI  29
BOSCOBEL       LGT RAIN  34  32  92 NE6       29.98F FOG     WCI  29
LONE ROCK      CLOUDY    34  31  88 E10       30.00F WCI  26
PLATTEVILLE    CLOUDY    34  34 100 E12       29.96R WCI  25
FORT MC COY    MIX PCPN  32  32  99 E7        30.02F WCI  26
CAMP DOUGLAS   LGT RAIN  33  31  95 E6        30.02F WCI  27
MAUSTON-NEW LI LGT RAIN  32  32  99 E5        30.02F WCI  28
VIROQUA        CLOUDY    32  32 100 E7        29.96F WCI  26
WIS DELLS      LGT RAIN  32  32  99 E12       30.01F WCI  23
$$

...ELSEWHERE IN WISCONSIN...


CITY           SKY/WX    TMP DP  RH WIND       PRES   REMARKS
MILWAUKEE      LGT RAIN  36  34  92 E12       30.07F FOG     WCI  28
MADISON        LGT RAIN  33  32  96 E9        30.01F FOG     WCI  25
GREEN BAY      FRZ RAIN  33  28  81 E6        30.11F WCI  28
EAU CLAIRE     FRZ RAIN  30  23  75 NE6       30.04F WCI  24
BLACK RVR FLS  LGT SNOW  32  32 100 NE6       30.03F WCI  27
MEDFORD        CLOUDY    31  15  51 E6        30.03F WCI  25
WAUSAU         CLOUDY    31  19  61 E6        30.05F WCI  25
WIS RAPIDS     FRZ RAIN  31  30  96 E8        30.07S FOG     WCI  23
MARSHFIELD     FRZ RAIN  30  24  78 E8        30.04S WCI  22
RICE LAKE      CLOUDY    23  18  80 CALM      30.06F
$$

...NORTHEAST IOWA...


CITY           SKY/WX    TMP DP  RH WIND       PRES   REMARKS
WATERLOO       CLOUDY    33  32  96 E7        29.92S FOG     WCI  27
DUBUQUE        CLOUDY    33  33 100 E6        29.94F FOG     WCI  28
DECORAH        CLOUDY    32  32 100 E8        29.94F FOG     WCI  25
MASON CITY     CLOUDY    32  31  96 NE12      29.94S FOG     WCI  23
CHARLES CITY   CLOUDY    34  34 100 MISG      29.94S
OELWEIN        CLOUDY    34  32  93 E9        29.93S FOG     WCI  26
$$

...ELSEWHERE IN IOWA...


CITY           SKY/WX    TMP DP  RH WIND       PRES   REMARKS
DES MOINES     DRZL/FOG  34  33  96 NE5       29.89S VSB 1/2 WCI  30
IOWA CITY      CLOUDY    37  36  96 E6        29.93F FOG     WCI  32
FORT DODGE     CLOUDY    32  30  93 CALM      29.93S
MARSHALLTOWN   LGT RAIN  33  33 100 E8        29.89S FOG     WCI  26
CEDAR RAPIDS   FOG       34  34 100 E9        29.90S VSB 1/2 WCI  27
$$

...NORTHERN ILLINOIS...


CITY           SKY/WX    TMP DP  RH WIND       PRES   REMARKS
CHICAGO-OHARE  DRIZZLE   36  35  96 E9        30.02F FOG     WCI  29
CHICAGO-MIDWAY LGT RAIN  36  34  92 NE7       30.03F VSB 1/2 WCI  30
MOLINE         CLOUDY    37  35  92 E7        29.93F FOG     WCI  32
ROCKFORD       LGT RAIN  36  34  92 E10       29.99F FOG     WCI  28
PEORIA         LGT RAIN  42  42 100 E6        29.95F FOG
$$

NOTE: "FAIR" INDICATES FEW OR NO CLOUDS BELOW 12,000 FEET WITH NO
SIGNIFICANT WEATHER AND/OR OBSTRUCTIONS TO VISIBILITY. WIND
SPEEDS ARE IN MILES-PER-HOUR.




USA.gov is the U.S. government's official web portal to all federal, state and local government web resources and services.